Location: Vinland
(47.7731°N, 122.6974°W)
Time: 20:50:17
(UTC+00:00)

Vanguard 1 Rocket - Pass Details

Date: 22 March 2023
Orbit: 655 x 4220 km, 34.3° (Epoch: 05 June)

Event Time Altitude Azimuth Distance (km) Brightness Sun altitude
Rises 07:12:33 0° 225° (SW) 8,250 12.1 -39.6°
Reaches altitude 10° 07:19:26 10° 219° (SW) 6,889 11.6 -40.0°
Enters shadow 07:21:04 13° 217° (SW) 6,557 11.4 -40.1°
